#datetime,building,power
2024-02-26T00:00:00,mnr,5.71
2024-02-26T00:01:00,mnr,6.49
2024-02-26T00:02:00,mnr,6.37
2024-02-26T00:03:00,mnr,7.37
2024-02-26T00:04:00,mnr,6.65
2024-02-26T00:05:00,mnr,6.74
2024-02-26T00:06:00,mnr,6.78
2024-02-26T00:07:00,mnr,6.70
2024-02-26T00:08:00,mnr,6.40
2024-02-26T00:09:00,mnr,7.05
2024-02-26T00:10:00,mnr,6.83
2024-02-26T00:11:00,mnr,6.51
2024-02-26T00:12:00,mnr,6.51
2024-02-26T00:13:00,mnr,5.85
2024-02-26T00:14:00,mnr,5.87
2024-02-26T00:15:00,mnr,6.63
2024-02-26T00:16:00,mnr,7.07
2024-02-26T00:17:00,mnr,6.36
2024-02-26T00:18:00,mnr,7.10
2024-02-26T00:19:00,mnr,6.53
2024-02-26T00:20:00,mnr,6.35
2024-02-26T00:21:00,mnr,6.91
2024-02-26T00:22:00,mnr,6.60
2024-02-26T00:23:00,mnr,5.98
2024-02-26T00:24:00,mnr,6.18
2024-02-26T00:25:00,mnr,5.94
2024-02-26T00:26:00,mnr,5.87
2024-02-26T00:27:00,mnr,5.98
2024-02-26T00:28:00,mnr,7.15
2024-02-26T00:29:00,mnr,5.91
2024-02-26T00:30:00,mnr,5.92
2024-02-26T00:31:00,mnr,6.09
2024-02-26T00:32:00,mnr,5.83
2024-02-26T00:33:00,mnr,5.86
2024-02-26T00:34:00,mnr,5.78
2024-02-26T00:35:00,mnr,5.94
2024-02-26T00:36:00,mnr,5.87
2024-02-26T00:37:00,mnr,5.88
2024-02-26T00:38:00,mnr,5.84
2024-02-26T00:39:00,mnr,6.77
2024-02-26T00:40:00,mnr,7.18
2024-02-26T00:41:00,mnr,6.83
2024-02-26T00:42:00,mnr,6.81
2024-02-26T00:43:00,mnr,6.65
2024-02-26T00:44:00,mnr,6.75
2024-02-26T00:45:00,mnr,6.64
2024-02-26T00:46:00,mnr,6.65
2024-02-26T00:47:00,mnr,5.94
2024-02-26T00:48:00,mnr,6.70
2024-02-26T00:49:00,mnr,6.62
2024-02-26T00:50:00,mnr,6.57
2024-02-26T00:51:00,mnr,6.17
2024-02-26T00:52:00,mnr,6.84
2024-02-26T00:53:00,mnr,6.06
2024-02-26T00:54:00,mnr,6.06
2024-02-26T00:55:00,mnr,5.87
2024-02-26T00:56:00,mnr,5.96
2024-02-26T00:57:00,mnr,5.98
2024-02-26T00:58:00,mnr,5.99
2024-02-26T00:59:00,mnr,5.90
2024-02-26T01:00:00,mnr,5.88
2024-02-26T01:01:00,mnr,6.00
2024-02-26T01:02:00,mnr,5.96
2024-02-26T01:03:00,mnr,6.42
2024-02-26T01:04:00,mnr,8.07
2024-02-26T01:05:00,mnr,7.55
2024-02-26T01:06:00,mnr,7.43
2024-02-26T01:07:00,mnr,7.53
2024-02-26T01:08:00,mnr,7.67
2024-02-26T01:09:00,mnr,7.45
2024-02-26T01:10:00,mnr,8.19
2024-02-26T01:11:00,mnr,6.95
2024-02-26T01:12:00,mnr,7.04
2024-02-26T01:13:00,mnr,7.09
2024-02-26T01:14:00,mnr,6.79
2024-02-26T01:15:00,mnr,7.03
2024-02-26T01:16:00,mnr,7.45
2024-02-26T01:17:00,mnr,8.78
2024-02-26T01:18:00,mnr,7.39
2024-02-26T01:19:00,mnr,7.73
2024-02-26T01:20:00,mnr,7.06
2024-02-26T01:21:00,mnr,7.06
2024-02-26T01:22:00,mnr,7.94
2024-02-26T01:23:00,mnr,7.13
2024-02-26T01:24:00,mnr,7.07
2024-02-26T01:25:00,mnr,6.97
2024-02-26T01:26:00,mnr,7.80
2024-02-26T01:27:00,mnr,7.07
2024-02-26T01:28:00,mnr,7.01
2024-02-26T01:29:00,mnr,6.92
2024-02-26T01:30:00,mnr,7.58
2024-02-26T01:31:00,mnr,8.15
2024-02-26T01:32:00,mnr,7.69
2024-02-26T01:33:00,mnr,8.03
2024-02-26T01:34:00,mnr,7.69
2024-02-26T01:35:00,mnr,8.67
2024-02-26T01:36:00,mnr,7.61
2024-02-26T01:37:00,mnr,7.69
2024-02-26T01:38:00,mnr,7.55
2024-02-26T01:39:00,mnr,7.83
2024-02-26T01:40:00,mnr,7.32
2024-02-26T01:41:00,mnr,7.32
2024-02-26T01:42:00,mnr,7.33
2024-02-26T01:43:00,mnr,7.90
2024-02-26T01:44:00,mnr,6.98
2024-02-26T01:45:00,mnr,6.62
2024-02-26T01:46:00,mnr,6.66
2024-02-26T01:47:00,mnr,6.67
2024-02-26T01:48:00,mnr,6.64
2024-02-26T01:49:00,mnr,6.61
2024-02-26T01:50:00,mnr,6.80
2024-02-26T01:51:00,mnr,6.71
2024-02-26T01:52:00,mnr,6.62
2024-02-26T01:53:00,mnr,6.70
2024-02-26T01:54:00,mnr,6.64
2024-02-26T01:55:00,mnr,6.57
2024-02-26T01:56:00,mnr,6.55
2024-02-26T01:57:00,mnr,7.18
2024-02-26T01:58:00,mnr,6.57
2024-02-26T01:59:00,mnr,6.58
2024-02-26T02:00:00,mnr,6.50
2024-02-26T02:01:00,mnr,6.52
2024-02-26T02:02:00,mnr,6.73
2024-02-26T02:03:00,mnr,6.51
2024-02-26T02:04:00,mnr,7.66
2024-02-26T02:05:00,mnr,6.56
2024-02-26T02:06:00,mnr,6.53
2024-02-26T02:07:00,mnr,7.05
2024-02-26T02:08:00,mnr,6.74
2024-02-26T02:09:00,mnr,6.49
2024-02-26T02:10:00,mnr,6.48
2024-02-26T02:11:00,mnr,6.55
2024-02-26T02:12:00,mnr,6.58
2024-02-26T02:13:00,mnr,6.51
2024-02-26T02:14:00,mnr,7.47
2024-02-26T02:15:00,mnr,7.52
2024-02-26T02:16:00,mnr,7.49
2024-02-26T02:17:00,mnr,7.45
2024-02-26T02:18:00,mnr,7.44
2024-02-26T02:19:00,mnr,7.40
2024-02-26T02:20:00,mnr,7.35
2024-02-26T02:21:00,mnr,7.31
2024-02-26T02:22:00,mnr,7.55
2024-02-26T02:23:00,mnr,7.76
2024-02-26T02:24:00,mnr,7.74
2024-02-26T02:25:00,mnr,7.77
2024-02-26T02:26:00,mnr,7.77
2024-02-26T02:27:00,mnr,8.06
2024-02-26T02:28:00,mnr,7.76
2024-02-26T02:29:00,mnr,7.77
2024-02-26T02:30:00,mnr,7.78
2024-02-26T02:31:00,mnr,7.55
2024-02-26T02:32:00,mnr,8.16
2024-02-26T02:33:00,mnr,7.04
2024-02-26T02:34:00,mnr,7.09
2024-02-26T02:35:00,mnr,7.03
2024-02-26T02:36:00,mnr,7.03
2024-02-26T02:37:00,mnr,7.29
2024-02-26T02:38:00,mnr,7.18
2024-02-26T02:39:00,mnr,7.16
2024-02-26T02:40:00,mnr,6.59
2024-02-26T02:41:00,mnr,7.18
2024-02-26T02:42:00,mnr,6.35
2024-02-26T02:43:00,mnr,6.34
2024-02-26T02:44:00,mnr,6.99
2024-02-26T02:45:00,mnr,6.91
2024-02-26T02:46:00,mnr,6.96
2024-02-26T02:47:00,mnr,7.09
2024-02-26T02:48:00,mnr,6.48
2024-02-26T02:49:00,mnr,7.24
2024-02-26T02:50:00,mnr,6.47
2024-02-26T02:51:00,mnr,7.08
2024-02-26T02:52:00,mnr,7.05
2024-02-26T02:53:00,mnr,6.31
2024-02-26T02:54:00,mnr,6.40
2024-02-26T02:55:00,mnr,6.34
2024-02-26T02:56:00,mnr,6.22
2024-02-26T02:57:00,mnr,6.44
2024-02-26T02:58:00,mnr,6.54
2024-02-26T02:59:00,mnr,6.23
2024-02-26T03:00:00,mnr,6.99
2024-02-26T03:01:00,mnr,6.27
2024-02-26T03:02:00,mnr,6.23
2024-02-26T03:03:00,mnr,5.76
2024-02-26T03:04:00,mnr,5.69
2024-02-26T03:05:00,mnr,5.99
2024-02-26T03:06:00,mnr,5.41
2024-02-26T03:07:00,mnr,5.95
2024-02-26T03:08:00,mnr,6.69
2024-02-26T03:09:00,mnr,5.43
2024-02-26T03:10:00,mnr,5.43
2024-02-26T03:11:00,mnr,5.38
2024-02-26T03:12:00,mnr,5.36
2024-02-26T03:13:00,mnr,5.89
2024-02-26T03:14:00,mnr,5.32
2024-02-26T03:15:00,mnr,5.38
2024-02-26T03:16:00,mnr,5.43
2024-02-26T03:17:00,mnr,5.41
2024-02-26T03:18:00,mnr,5.34
2024-02-26T03:19:00,mnr,5.40
2024-02-26T03:20:00,mnr,5.44
2024-02-26T03:21:00,mnr,4.93
2024-02-26T03:22:00,mnr,5.50
2024-02-26T03:23:00,mnr,4.87
2024-02-26T03:24:00,mnr,5.54
2024-02-26T03:25:00,mnr,5.69
2024-02-26T03:26:00,mnr,4.83
2024-02-26T03:27:00,mnr,4.81
2024-02-26T03:28:00,mnr,5.32
2024-02-26T03:29:00,mnr,4.62
2024-02-26T03:30:00,mnr,4.67
2024-02-26T03:31:00,mnr,4.69
2024-02-26T03:32:00,mnr,4.63
2024-02-26T03:33:00,mnr,4.63
2024-02-26T03:34:00,mnr,4.72
2024-02-26T03:35:00,mnr,4.67
2024-02-26T03:36:00,mnr,4.64
2024-02-26T03:37:00,mnr,5.35
2024-02-26T03:38:00,mnr,6.29
2024-02-26T03:39:00,mnr,8.38
2024-02-26T03:40:00,mnr,6.95
2024-02-26T03:41:00,mnr,6.24
2024-02-26T03:42:00,mnr,7.08
2024-02-26T03:43:00,mnr,5.70
2024-02-26T03:44:00,mnr,5.64
2024-02-26T03:45:00,mnr,6.64
2024-02-26T03:46:00,mnr,5.73
2024-02-26T03:47:00,mnr,5.97
2024-02-26T03:48:00,mnr,5.77
2024-02-26T03:49:00,mnr,5.66
2024-02-26T03:50:00,mnr,5.65
2024-02-26T03:51:00,mnr,5.75
2024-02-26T03:52:00,mnr,5.70
2024-02-26T03:53:00,mnr,5.76
2024-02-26T03:54:00,mnr,5.52
2024-02-26T03:55:00,mnr,5.52
2024-02-26T03:56:00,mnr,5.87
2024-02-26T03:57:00,mnr,5.61
2024-02-26T03:58:00,mnr,5.15
2024-02-26T03:59:00,mnr,5.15
2024-02-26T04:00:00,mnr,4.95
2024-02-26T04:01:00,mnr,5.16
2024-02-26T04:02:00,mnr,5.09
2024-02-26T04:03:00,mnr,5.16
2024-02-26T04:04:00,mnr,5.23
2024-02-26T04:05:00,mnr,5.07
2024-02-26T04:06:00,mnr,5.00
2024-02-26T04:07:00,mnr,4.95
2024-02-26T04:08:00,mnr,4.71
2024-02-26T04:09:00,mnr,4.78
2024-02-26T04:10:00,mnr,5.46
2024-02-26T04:11:00,mnr,4.31
2024-02-26T04:12:00,mnr,4.44
2024-02-26T04:13:00,mnr,4.36
2024-02-26T04:14:00,mnr,4.40
2024-02-26T04:15:00,mnr,4.34
2024-02-26T04:16:00,mnr,5.00
2024-02-26T04:17:00,mnr,4.39
2024-02-26T04:18:00,mnr,4.35
2024-02-26T04:19:00,mnr,4.27
2024-02-26T04:20:00,mnr,4.28
2024-02-26T04:21:00,mnr,4.66
2024-02-26T04:22:00,mnr,4.66
2024-02-26T04:23:00,mnr,4.62
2024-02-26T04:24:00,mnr,4.75
2024-02-26T04:25:00,mnr,4.65
2024-02-26T04:26:00,mnr,4.65
2024-02-26T04:27:00,mnr,4.69
2024-02-26T04:28:00,mnr,4.61
2024-02-26T04:29:00,mnr,4.66
2024-02-26T04:30:00,mnr,4.66
2024-02-26T04:31:00,mnr,4.71
2024-02-26T04:32:00,mnr,4.67
2024-02-26T04:33:00,mnr,4.63
2024-02-26T04:34:00,mnr,5.11
2024-02-26T04:35:00,mnr,5.44
2024-02-26T04:36:00,mnr,4.68
2024-02-26T04:37:00,mnr,4.75
2024-02-26T04:38:00,mnr,4.70
2024-02-26T04:39:00,mnr,4.70
2024-02-26T04:40:00,mnr,5.28
2024-02-26T04:41:00,mnr,5.46
2024-02-26T04:42:00,mnr,5.33
2024-02-26T04:43:00,mnr,4.89
2024-02-26T04:44:00,mnr,5.27
2024-02-26T04:45:00,mnr,4.59
2024-02-26T04:46:00,mnr,4.69
2024-02-26T04:47:00,mnr,4.61
2024-02-26T04:48:00,mnr,4.64
2024-02-26T04:49:00,mnr,4.57
2024-02-26T04:50:00,mnr,4.66
2024-02-26T04:51:00,mnr,4.98
2024-02-26T04:52:00,mnr,12.59
2024-02-26T04:53:00,mnr,6.25
2024-02-26T04:54:00,mnr,7.40
2024-02-26T04:55:00,mnr,6.31
2024-02-26T04:56:00,mnr,6.95
2024-02-26T04:57:00,mnr,6.39
2024-02-26T04:58:00,mnr,6.26
2024-02-26T04:59:00,mnr,6.36
2024-02-26T05:00:00,mnr,6.01
2024-02-26T05:01:00,mnr,6.23
2024-02-26T05:02:00,mnr,5.69
2024-02-26T05:03:00,mnr,5.55
2024-02-26T05:04:00,mnr,5.39
2024-02-26T05:05:00,mnr,5.52
2024-02-26T05:06:00,mnr,4.88
2024-02-26T05:07:00,mnr,4.72
2024-02-26T05:08:00,mnr,4.79
2024-02-26T05:09:00,mnr,4.78
2024-02-26T05:10:00,mnr,4.72
2024-02-26T05:11:00,mnr,5.88
2024-02-26T05:12:00,mnr,4.69
2024-02-26T05:13:00,mnr,4.84
2024-02-26T05:14:00,mnr,4.72
2024-02-26T05:15:00,mnr,4.70
2024-02-26T05:16:00,mnr,4.66
2024-02-26T05:17:00,mnr,4.73
2024-02-26T05:18:00,mnr,4.64
2024-02-26T05:19:00,mnr,4.56
2024-02-26T05:20:00,mnr,4.70
2024-02-26T05:21:00,mnr,4.58
2024-02-26T05:22:00,mnr,4.53
2024-02-26T05:23:00,mnr,4.49
2024-02-26T05:24:00,mnr,4.07
2024-02-26T05:25:00,mnr,4.25
2024-02-26T05:26:00,mnr,4.02
2024-02-26T05:27:00,mnr,4.71
2024-02-26T05:28:00,mnr,4.17
2024-02-26T05:29:00,mnr,4.79
2024-02-26T05:30:00,mnr,4.91
2024-02-26T05:31:00,mnr,4.84
2024-02-26T05:32:00,mnr,4.22
2024-02-26T05:33:00,mnr,4.28
2024-02-26T05:34:00,mnr,4.18
2024-02-26T05:35:00,mnr,4.17
2024-02-26T05:36:00,mnr,4.11
2024-02-26T05:37:00,mnr,4.14
2024-02-26T05:38:00,mnr,4.11
2024-02-26T05:39:00,mnr,4.58
2024-02-26T05:40:00,mnr,4.13
2024-02-26T05:41:00,mnr,4.21
2024-02-26T05:42:00,mnr,4.19
2024-02-26T05:43:00,mnr,4.22
2024-02-26T05:44:00,mnr,4.19
2024-02-26T05:45:00,mnr,5.40
2024-02-26T05:46:00,mnr,6.11
2024-02-26T05:47:00,mnr,5.94
2024-02-26T05:48:00,mnr,5.92
2024-02-26T05:49:00,mnr,5.90
2024-02-26T05:50:00,mnr,5.84
2024-02-26T05:51:00,mnr,5.83
2024-02-26T05:52:00,mnr,5.79
2024-02-26T05:53:00,mnr,5.15
2024-02-26T05:54:00,mnr,6.22
2024-02-26T05:55:00,mnr,5.14
2024-02-26T05:56:00,mnr,5.04
2024-02-26T05:57:00,mnr,5.00
2024-02-26T05:58:00,mnr,5.16
2024-02-26T05:59:00,mnr,4.98
2024-02-26T06:00:00,mnr,5.04
2024-02-26T06:01:00,mnr,5.75
2024-02-26T06:02:00,mnr,7.39
2024-02-26T06:03:00,mnr,9.31
2024-02-26T06:04:00,mnr,9.95
2024-02-26T06:05:00,mnr,11.13
2024-02-26T06:06:00,mnr,13.71
2024-02-26T06:07:00,mnr,14.29
2024-02-26T06:08:00,mnr,12.63
2024-02-26T06:09:00,mnr,12.21
2024-02-26T06:10:00,mnr,12.90
2024-02-26T06:11:00,mnr,13.68
2024-02-26T06:12:00,mnr,14.02
2024-02-26T06:13:00,mnr,14.04
2024-02-26T06:14:00,mnr,14.12
2024-02-26T06:15:00,mnr,14.52
2024-02-26T06:16:00,mnr,13.98
2024-02-26T06:17:00,mnr,14.03
2024-02-26T06:18:00,mnr,13.91
2024-02-26T06:19:00,mnr,13.89
2024-02-26T06:20:00,mnr,13.50
2024-02-26T06:21:00,mnr,13.53
2024-02-26T06:22:00,mnr,13.77
2024-02-26T06:23:00,mnr,13.68
2024-02-26T06:24:00,mnr,13.66
2024-02-26T06:25:00,mnr,14.73
2024-02-26T06:26:00,mnr,13.59
2024-02-26T06:27:00,mnr,14.48
2024-02-26T06:28:00,mnr,13.55
2024-02-26T06:29:00,mnr,14.37
2024-02-26T06:30:00,mnr,14.17
2024-02-26T06:31:00,mnr,14.08
2024-02-26T06:32:00,mnr,14.06
2024-02-26T06:33:00,mnr,13.95
2024-02-26T06:34:00,mnr,13.96
2024-02-26T06:35:00,mnr,13.95
2024-02-26T06:36:00,mnr,14.48
2024-02-26T06:37:00,mnr,13.93
2024-02-26T06:38:00,mnr,10.84
2024-02-26T06:39:00,mnr,14.23
2024-02-26T06:40:00,mnr,14.78
2024-02-26T06:41:00,mnr,14.84
2024-02-26T06:42:00,mnr,15.80
2024-02-26T06:43:00,mnr,14.86
2024-02-26T06:44:00,mnr,14.41
2024-02-26T06:45:00,mnr,14.23
2024-02-26T06:46:00,mnr,15.42
2024-02-26T06:47:00,mnr,14.90
2024-02-26T06:48:00,mnr,14.70
2024-02-26T06:49:00,mnr,14.71
2024-02-26T06:50:00,mnr,14.40
2024-02-26T06:51:00,mnr,15.02
2024-02-26T06:52:00,mnr,14.72
2024-02-26T06:53:00,mnr,17.40
2024-02-26T06:54:00,mnr,14.46
2024-02-26T06:55:00,mnr,23.83
2024-02-26T06:56:00,mnr,14.85
2024-02-26T06:57:00,mnr,13.81
2024-02-26T06:58:00,mnr,14.38
2024-02-26T06:59:00,mnr,14.54
2024-02-26T07:00:00,mnr,14.40
2024-02-26T07:01:00,mnr,14.26
2024-02-26T07:02:00,mnr,13.46
2024-02-26T07:03:00,mnr,13.52
2024-02-26T07:04:00,mnr,13.90
2024-02-26T07:05:00,mnr,13.00
2024-02-26T07:06:00,mnr,13.00
2024-02-26T07:07:00,mnr,13.03
2024-02-26T07:08:00,mnr,14.05
2024-02-26T07:09:00,mnr,12.68
2024-02-26T07:10:00,mnr,12.75
2024-02-26T07:11:00,mnr,12.85
2024-02-26T07:12:00,mnr,12.78
2024-02-26T07:13:00,mnr,12.75
2024-02-26T07:14:00,mnr,12.74
2024-02-26T07:15:00,mnr,12.72
2024-02-26T07:16:00,mnr,13.33
2024-02-26T07:17:00,mnr,12.18
2024-02-26T07:18:00,mnr,12.12
2024-02-26T07:19:00,mnr,11.88
2024-02-26T07:20:00,mnr,12.76
2024-02-26T07:21:00,mnr,12.70
2024-02-26T07:22:00,mnr,13.14
2024-02-26T07:23:00,mnr,12.78
2024-02-26T07:24:00,mnr,13.44
2024-02-26T07:25:00,mnr,13.43
2024-02-26T07:26:00,mnr,13.51
2024-02-26T07:27:00,mnr,13.51
2024-02-26T07:28:00,mnr,12.75
2024-02-26T07:29:00,mnr,14.12
2024-02-26T07:30:00,mnr,13.49
2024-02-26T07:31:00,mnr,13.58
2024-02-26T07:32:00,mnr,13.45
2024-02-26T07:33:00,mnr,12.99
2024-02-26T07:34:00,mnr,13.71
2024-02-26T07:35:00,mnr,13.10
2024-02-26T07:36:00,mnr,12.98
2024-02-26T07:37:00,mnr,12.91
2024-02-26T07:38:00,mnr,12.99
2024-02-26T07:39:00,mnr,12.95
2024-02-26T07:40:00,mnr,13.22
2024-02-26T07:41:00,mnr,12.67
2024-02-26T07:42:00,mnr,12.26
2024-02-26T07:43:00,mnr,12.91
2024-02-26T07:44:00,mnr,11.57
2024-02-26T07:45:00,mnr,11.49
2024-02-26T07:46:00,mnr,11.85
2024-02-26T07:47:00,mnr,11.93
2024-02-26T07:48:00,mnr,12.17
2024-02-26T07:49:00,mnr,12.89
2024-02-26T07:50:00,mnr,13.43
2024-02-26T07:51:00,mnr,12.88
2024-02-26T07:52:00,mnr,12.87
2024-02-26T07:53:00,mnr,12.80
2024-02-26T07:54:00,mnr,12.79
2024-02-26T07:55:00,mnr,12.87
2024-02-26T07:56:00,mnr,12.93
2024-02-26T07:57:00,mnr,13.48
2024-02-26T07:58:00,mnr,13.02
2024-02-26T07:59:00,mnr,12.93
2024-02-26T08:00:00,mnr,14.17
2024-02-26T08:01:00,mnr,13.41
2024-02-26T08:02:00,mnr,13.20
2024-02-26T08:03:00,mnr,12.99
2024-02-26T08:04:00,mnr,12.95
2024-02-26T08:05:00,mnr,13.10
2024-02-26T08:06:00,mnr,13.56
2024-02-26T08:07:00,mnr,12.90
2024-02-26T08:08:00,mnr,12.87
2024-02-26T08:09:00,mnr,12.90
2024-02-26T08:10:00,mnr,12.87
2024-02-26T08:11:00,mnr,13.00
2024-02-26T08:12:00,mnr,14.43
2024-02-26T08:13:00,mnr,14.76
2024-02-26T08:14:00,mnr,14.89
2024-02-26T08:15:00,mnr,14.62
2024-02-26T08:16:00,mnr,14.54
2024-02-26T08:17:00,mnr,14.60
2024-02-26T08:18:00,mnr,15.34
2024-02-26T08:19:00,mnr,14.63
2024-02-26T08:20:00,mnr,15.06
2024-02-26T08:21:00,mnr,14.62
2024-02-26T08:22:00,mnr,14.85
2024-02-26T08:23:00,mnr,14.73
2024-02-26T08:24:00,mnr,15.94
2024-02-26T08:25:00,mnr,15.43
2024-02-26T08:26:00,mnr,15.42
2024-02-26T08:27:00,mnr,15.57
2024-02-26T08:28:00,mnr,15.79
2024-02-26T08:29:00,mnr,15.61
2024-02-26T08:30:00,mnr,15.73
2024-02-26T08:31:00,mnr,15.75
2024-02-26T08:32:00,mnr,15.88
2024-02-26T08:33:00,mnr,15.94
2024-02-26T08:34:00,mnr,16.06
2024-02-26T08:35:00,mnr,15.94
2024-02-26T08:36:00,mnr,15.82
2024-02-26T08:37:00,mnr,15.94
2024-02-26T08:38:00,mnr,17.33
2024-02-26T08:39:00,mnr,13.50
2024-02-26T08:40:00,mnr,16.65
2024-02-26T08:41:00,mnr,17.40
2024-02-26T08:42:00,mnr,16.34
2024-02-26T08:43:00,mnr,17.20
2024-02-26T08:44:00,mnr,16.66
2024-02-26T08:45:00,mnr,17.15
2024-02-26T08:46:00,mnr,17.28
2024-02-26T08:47:00,mnr,13.43
2024-02-26T08:48:00,mnr,16.57
2024-02-26T08:49:00,mnr,16.61
2024-02-26T08:50:00,mnr,17.73
2024-02-26T08:51:00,mnr,13.05
2024-02-26T08:52:00,mnr,16.63
2024-02-26T08:53:00,mnr,16.63
2024-02-26T08:54:00,mnr,17.05
2024-02-26T08:55:00,mnr,16.69
2024-02-26T08:56:00,mnr,17.94
2024-02-26T08:57:00,mnr,16.66
2024-02-26T08:58:00,mnr,16.61
2024-02-26T08:59:00,mnr,16.61
2024-02-26T09:00:00,mnr,16.62
2024-02-26T09:01:00,mnr,16.61
2024-02-26T09:02:00,mnr,17.20
2024-02-26T09:03:00,mnr,16.84
2024-02-26T09:04:00,mnr,16.78
2024-02-26T09:05:00,mnr,16.18
2024-02-26T09:06:00,mnr,16.02
2024-02-26T09:07:00,mnr,15.96
2024-02-26T09:08:00,mnr,15.88
2024-02-26T09:09:00,mnr,23.70
2024-02-26T09:10:00,mnr,17.04
2024-02-26T09:11:00,mnr,17.41
2024-02-26T09:12:00,mnr,16.67
2024-02-26T09:13:00,mnr,16.76
2024-02-26T09:14:00,mnr,16.72
2024-02-26T09:15:00,mnr,16.82
2024-02-26T09:16:00,mnr,16.83
2024-02-26T09:17:00,mnr,18.75
2024-02-26T09:18:00,mnr,17.76
2024-02-26T09:19:00,mnr,17.88
2024-02-26T09:20:00,mnr,19.23
2024-02-26T09:21:00,mnr,17.44
2024-02-26T09:22:00,mnr,17.23
2024-02-26T09:23:00,mnr,16.44
2024-02-26T09:24:00,mnr,16.43
2024-02-26T09:25:00,mnr,26.65
2024-02-26T09:26:00,mnr,19.09
2024-02-26T09:27:00,mnr,20.14
2024-02-26T09:28:00,mnr,19.18
2024-02-26T09:29:00,mnr,16.60
2024-02-26T09:30:00,mnr,17.87
2024-02-26T09:31:00,mnr,16.12
2024-02-26T09:32:00,mnr,17.27
2024-02-26T09:33:00,mnr,16.43
2024-02-26T09:34:00,mnr,16.78
2024-02-26T09:35:00,mnr,16.84
2024-02-26T09:36:00,mnr,29.42
2024-02-26T09:37:00,mnr,17.91
2024-02-26T09:38:00,mnr,16.83
2024-02-26T09:39:00,mnr,16.79
2024-02-26T09:40:00,mnr,27.11
2024-02-26T09:41:00,mnr,17.69
2024-02-26T09:42:00,mnr,14.64
2024-02-26T09:43:00,mnr,17.84
2024-02-26T09:44:00,mnr,15.89
2024-02-26T09:45:00,mnr,17.79
2024-02-26T09:46:00,mnr,18.57
2024-02-26T09:47:00,mnr,18.31
2024-02-26T09:48:00,mnr,18.66
2024-02-26T09:49:00,mnr,18.70
2024-02-26T09:50:00,mnr,18.55
2024-02-26T09:51:00,mnr,18.60
2024-02-26T09:52:00,mnr,19.61
2024-02-26T09:53:00,mnr,18.31
2024-02-26T09:54:00,mnr,18.44
2024-02-26T09:55:00,mnr,18.56
2024-02-26T09:56:00,mnr,18.51
2024-02-26T09:57:00,mnr,18.62
2024-02-26T09:58:00,mnr,19.05
2024-02-26T09:59:00,mnr,18.46
2024-02-26T10:00:00,mnr,19.09
2024-02-26T10:01:00,mnr,18.40
2024-02-26T10:02:00,mnr,19.42
2024-02-26T10:03:00,mnr,18.46
2024-02-26T10:04:00,mnr,19.20
2024-02-26T10:05:00,mnr,18.56
2024-02-26T10:06:00,mnr,18.57
2024-02-26T10:07:00,mnr,19.42
2024-02-26T10:08:00,mnr,19.08
2024-02-26T10:09:00,mnr,19.06
2024-02-26T10:10:00,mnr,18.16
2024-02-26T10:11:00,mnr,17.99
2024-02-26T10:12:00,mnr,18.06
2024-02-26T10:13:00,mnr,17.87
2024-02-26T10:14:00,mnr,17.34
2024-02-26T10:15:00,mnr,18.04
2024-02-26T10:16:00,mnr,17.98
2024-02-26T10:17:00,mnr,18.68
2024-02-26T10:18:00,mnr,18.66
2024-02-26T10:19:00,mnr,17.96
2024-02-26T10:20:00,mnr,17.97
2024-02-26T10:21:00,mnr,18.57
2024-02-26T10:22:00,mnr,17.98
2024-02-26T10:23:00,mnr,18.27
2024-02-26T10:24:00,mnr,18.86
2024-02-26T10:25:00,mnr,18.07
2024-02-26T10:26:00,mnr,19.39
2024-02-26T10:27:00,mnr,18.03
2024-02-26T10:28:00,mnr,17.89
2024-02-26T10:29:00,mnr,17.94
2024-02-26T10:30:00,mnr,17.98
2024-02-26T10:31:00,mnr,17.93
2024-02-26T10:32:00,mnr,18.17
2024-02-26T10:33:00,mnr,18.53
2024-02-26T10:34:00,mnr,17.87
2024-02-26T10:35:00,mnr,13.54
2024-02-26T10:36:00,mnr,16.45
2024-02-26T10:37:00,mnr,16.69
2024-02-26T10:38:00,mnr,16.71
2024-02-26T10:39:00,mnr,16.66
2024-02-26T10:40:00,mnr,17.91
2024-02-26T10:41:00,mnr,16.13
2024-02-26T10:42:00,mnr,16.70
2024-02-26T10:43:00,mnr,17.53
2024-02-26T10:44:00,mnr,17.44
2024-02-26T10:45:00,mnr,16.88
2024-02-26T10:46:00,mnr,16.85
2024-02-26T10:47:00,mnr,16.92
2024-02-26T10:48:00,mnr,16.82
2024-02-26T10:49:00,mnr,16.72
2024-02-26T10:50:00,mnr,17.28
2024-02-26T10:51:00,mnr,16.70
2024-02-26T10:52:00,mnr,16.87
2024-02-26T10:53:00,mnr,16.71
2024-02-26T10:54:00,mnr,16.82
2024-02-26T10:55:00,mnr,16.72
2024-02-26T10:56:00,mnr,17.62
2024-02-26T10:57:00,mnr,16.80
2024-02-26T10:58:00,mnr,16.79
2024-02-26T10:59:00,mnr,17.66
2024-02-26T11:00:00,mnr,16.77
2024-02-26T11:01:00,mnr,18.71
2024-02-26T11:02:00,mnr,16.45
2024-02-26T11:03:00,mnr,16.70
2024-02-26T11:04:00,mnr,16.36
2024-02-26T11:05:00,mnr,15.90
2024-02-26T11:06:00,mnr,17.45
2024-02-26T11:07:00,mnr,15.34
2024-02-26T11:08:00,mnr,17.24
2024-02-26T11:09:00,mnr,15.79
2024-02-26T11:10:00,mnr,20.08
2024-02-26T11:11:00,mnr,19.99
2024-02-26T11:12:00,mnr,19.10
2024-02-26T11:13:00,mnr,18.31
2024-02-26T11:14:00,mnr,17.93
2024-02-26T11:15:00,mnr,20.13
2024-02-26T11:16:00,mnr,19.11
2024-02-26T11:17:00,mnr,18.46
2024-02-26T11:18:00,mnr,18.10
2024-02-26T11:19:00,mnr,18.13
2024-02-26T11:20:00,mnr,18.13
2024-02-26T11:21:00,mnr,18.61
2024-02-26T11:22:00,mnr,18.24
2024-02-26T11:23:00,mnr,15.15
2024-02-26T11:24:00,mnr,18.92
2024-02-26T11:25:00,mnr,19.97
2024-02-26T11:26:00,mnr,19.94
2024-02-26T11:27:00,mnr,18.21
2024-02-26T11:28:00,mnr,18.14
2024-02-26T11:29:00,mnr,18.32
2024-02-26T11:30:00,mnr,19.84
2024-02-26T11:31:00,mnr,18.87
2024-02-26T11:32:00,mnr,18.23
2024-02-26T11:33:00,mnr,18.81
2024-02-26T11:34:00,mnr,18.10
2024-02-26T11:35:00,mnr,18.16
2024-02-26T11:36:00,mnr,18.14
2024-02-26T11:37:00,mnr,18.17
2024-02-26T11:38:00,mnr,18.15
2024-02-26T11:39:00,mnr,18.37
2024-02-26T11:40:00,mnr,18.40
2024-02-26T11:41:00,mnr,19.19
2024-02-26T11:42:00,mnr,18.89
2024-02-26T11:43:00,mnr,18.42
2024-02-26T11:44:00,mnr,18.53
2024-02-26T11:45:00,mnr,18.71
2024-02-26T11:46:00,mnr,18.86
2024-02-26T11:47:00,mnr,19.57
2024-02-26T11:48:00,mnr,20.68
2024-02-26T11:49:00,mnr,20.59
2024-02-26T11:50:00,mnr,19.03
2024-02-26T11:51:00,mnr,19.05
2024-02-26T11:52:00,mnr,19.73
2024-02-26T11:53:00,mnr,18.75
2024-02-26T11:54:00,mnr,18.76
2024-02-26T11:55:00,mnr,18.66
2024-02-26T11:56:00,mnr,18.96
2024-02-26T11:57:00,mnr,18.67
2024-02-26T11:58:00,mnr,18.59
2024-02-26T11:59:00,mnr,18.53
2024-02-26T12:00:00,mnr,18.51
2024-02-26T12:01:00,mnr,19.26
2024-02-26T12:02:00,mnr,20.06
2024-02-26T12:03:00,mnr,19.87
2024-02-26T12:04:00,mnr,18.42
2024-02-26T12:05:00,mnr,18.97
2024-02-26T12:06:00,mnr,18.45
2024-02-26T12:07:00,mnr,27.13
2024-02-26T12:08:00,mnr,19.20
2024-02-26T12:09:00,mnr,18.40
2024-02-26T12:10:00,mnr,19.07
2024-02-26T12:11:00,mnr,18.55
2024-02-26T12:12:00,mnr,18.63
2024-02-26T12:13:00,mnr,18.46
2024-02-26T12:14:00,mnr,18.56
2024-02-26T12:15:00,mnr,18.47
2024-02-26T12:16:00,mnr,18.47
2024-02-26T12:17:00,mnr,18.57
2024-02-26T12:18:00,mnr,18.59
2024-02-26T12:19:00,mnr,19.87
2024-02-26T12:20:00,mnr,19.81
2024-02-26T12:21:00,mnr,19.98
2024-02-26T12:22:00,mnr,18.50
2024-02-26T12:23:00,mnr,20.06
2024-02-26T12:24:00,mnr,21.66
2024-02-26T12:25:00,mnr,20.57
2024-02-26T12:26:00,mnr,19.17
2024-02-26T12:27:00,mnr,18.18
2024-02-26T12:28:00,mnr,19.01
2024-02-26T12:29:00,mnr,17.43
2024-02-26T12:30:00,mnr,22.64
2024-02-26T12:31:00,mnr,18.47
2024-02-26T12:32:00,mnr,17.50
2024-02-26T12:33:00,mnr,17.52
2024-02-26T12:34:00,mnr,18.20
2024-02-26T12:35:00,mnr,17.61
2024-02-26T12:36:00,mnr,18.35
2024-02-26T12:37:00,mnr,18.00
2024-02-26T12:38:00,mnr,17.87
2024-02-26T12:39:00,mnr,18.61
2024-02-26T12:40:00,mnr,18.89
2024-02-26T12:41:00,mnr,15.79
2024-02-26T12:42:00,mnr,20.76
2024-02-26T12:43:00,mnr,20.54
2024-02-26T12:44:00,mnr,29.43
2024-02-26T12:45:00,mnr,19.02
2024-02-26T12:46:00,mnr,28.18
2024-02-26T12:47:00,mnr,18.57
2024-02-26T12:48:00,mnr,18.29
2024-02-26T12:49:00,mnr,18.21
2024-02-26T12:50:00,mnr,18.01
2024-02-26T12:51:00,mnr,18.11
2024-02-26T12:52:00,mnr,14.94
2024-02-26T12:53:00,mnr,17.92
2024-02-26T12:54:00,mnr,18.28
2024-02-26T12:55:00,mnr,18.61
2024-02-26T12:56:00,mnr,18.08
2024-02-26T12:57:00,mnr,17.95
2024-02-26T12:58:00,mnr,17.83
2024-02-26T12:59:00,mnr,18.54
2024-02-26T13:00:00,mnr,20.60
2024-02-26T13:01:00,mnr,17.85
2024-02-26T13:02:00,mnr,17.86
2024-02-26T13:03:00,mnr,19.46
2024-02-26T13:04:00,mnr,17.89
2024-02-26T13:05:00,mnr,17.70
2024-02-26T13:06:00,mnr,17.58
2024-02-26T13:07:00,mnr,27.24
2024-02-26T13:08:00,mnr,18.08
2024-02-26T13:09:00,mnr,18.95
2024-02-26T13:10:00,mnr,18.10
2024-02-26T13:11:00,mnr,19.71
2024-02-26T13:12:00,mnr,18.12
2024-02-26T13:13:00,mnr,17.94
2024-02-26T13:14:00,mnr,18.06
2024-02-26T13:15:00,mnr,18.18
2024-02-26T13:16:00,mnr,18.24
2024-02-26T13:17:00,mnr,19.18
2024-02-26T13:18:00,mnr,18.16
2024-02-26T13:19:00,mnr,18.45
2024-02-26T13:20:00,mnr,18.04
2024-02-26T13:21:00,mnr,18.09
2024-02-26T13:22:00,mnr,19.25
2024-02-26T13:23:00,mnr,18.10
2024-02-26T13:24:00,mnr,17.99
2024-02-26T13:25:00,mnr,17.89
2024-02-26T13:26:00,mnr,19.01
2024-02-26T13:27:00,mnr,19.24
2024-02-26T13:28:00,mnr,18.69
2024-02-26T13:29:00,mnr,19.06
2024-02-26T13:30:00,mnr,18.31